Theta_e
357 349 351 351 349 346 346 347 353 351 348 345 344 344 344 342 340 343 336 337 336 337
352 357 351 359 358 349 350 347 348 347 345 344 343 343 343 339 338 339 341 337 337 337
354 355 353 353 353 352 351 345 344 342 343 342 342 341 342 340 342 339 341 339 332 336
348 349 349 346 344 345 345 343 341 341 341 338 337 339 342 339 337 335 337 335 330 332
346 344 345 343 343 343 342 341 338 337 335 334 335 339 337 335 335 334 333 328 327 329
343 342 343 342 342 340 339 337 336 335 334 335 336 336 336 333 333 333 334 329 324 328
340 340 340 339 339 338 337 335 335 336 335 333 332 332 334 334 335 334 331 326 323 324
338 338 337 337 337 336 336 336 336 336 335 335 335 331 335 333 333 332 325 324 324 327
334 335 336 337 336 335 336 336 336 336 335 335 330 307 312 322 331 329 326 322 325 327
333 333 333 334 332 335 336 338 336 334 335 333 331 305 307 313 333 330 326 325 326 327
331 331 333 332 333 337 337 338 338 335 335 332 325 306 307 311 332 329 325 325 325 327
331 330 329 331 335 335 336 338 337 335 334 331 328 305 307 318 327 325 323 323 324 324
331 330 329 333 334 335 336 336 335 334 334 321 328 303 307 318 328 323 321 322 319 309
331 330 331 334 336 336 335 335 335 331 331 330 327 323 305 309 327 326 323 318 317 310
Wind_Speed
13 10 11 14 12 11 10 11 12 10 10 9 10 6 7 6 7 8 6 6 4 2
14 13 12 11 12 11 11 9 12 11 10 9 7 8 7 8 8 6 5 6 4 4
13 11 12 11 9 10 10 11 11 10 9 7 8 10 8 7 6 6 6 5 5 5
11 12 13 11 12 11 11 11 11 10 9 8 7 8 7 3 5 9 8 7 4 5
14 15 13 13 12 11 10 9 8 8 9 9 9 5 6 5 7 6 8 6 2 3
15 14 13 12 11 10 10 9 9 10 9 5 4 6 5 4 3 4 9 9 5 5
14 13 12 11 11 10 10 10 8 5 4 4 3 2 3 3 4 5 8 7 6 6
13 12 12 12 11 11 10 7 6 5 3 7 3 5 5 2 4 5 6 7 6 5
13 13 12 11 9 11 8 5 5 4 10 5 7 8 7 5 4 7 7 7 8 5
13 13 8 10 11 9 6 6 5 5 9 7 8 6 6 7 3 8 6 5 4 4
11 13 13 12 9 6 7 8 6 6 8 7 7 5 6 9 7 8 6 5 5 3
11 10 9 11 9 9 8 7 7 7 9 8 8 4 5 1 7 7 6 5 5 4
13 14 9 7 8 8 8 8 6 8 8 7 9 5 4 2 5 8 5 6 6 6
15 11 10 9 6 9 7 5 9 9 7 8 8 6 4 5 2 4 7 6 4 3
Wind_Direction
174 175 160 191 148 167 168 167 164 174 174 178 187 166 186 194 208 205 203 210 238 283
172 165 168 148 150 164 161 137 164 174 176 193 167 187 183 219 202 175 180 199 212 227
157 143 127 144 153 135 116 147 162 171 176 171 190 202 193 201 172 185 183 209 191 227
125 131 142 137 137 130 142 149 166 171 177 187 189 193 189 213 207 212 188 175 198 246
139 137 137 137 137 142 151 163 159 166 179 186 192 135 194 212 233 204 174 155 168 208
136 139 137 137 142 148 151 158 161 175 179 163 159 160 221 270 195 176 166 169 154 263
139 139 137 139 146 150 158 164 151 120 200 164 147 106 82 196 212 194 169 145 150 240
136 138 142 148 153 157 161 121 126 187 140 76 79 47 24 16 130 124 130 155 159 213
146 146 147 151 149 160 104 125 168 156 93 90 70 39 20 11 112 127 150 166 176 210
149 134 144 157 154 136 156 143 116 134 99 100 94 39 11 342 200 126 126 122 145 173
147 148 166 157 136 115 147 129 137 125 109 108 90 37 7 343 92 98 111 122 148 176
166 115 153 128 137 150 146 140 146 125 117 116 113 52 17 63 95 98 112 114 132 168
141 136 151 150 162 155 149 153 141 119 111 113 118 76 46 122 120 116 101 92 82 117
120 145 170 151 148 165 161 169 119 110 113 125 116 99 71 2 132 126 118 101 94 80